STARLINK-1933 (46791 NORAD) Tracking and Keplerian Element Data

This shows tracking and keplerian element data for the satellite.

Feedback or suggestion? Click here.




ElementValue
Catalog46791
NameSTARLINK-1933
Epoch Orbit1397
Epoch Day21.16668981
Epoch Year2021
RAAN92.1317
Inclination53.0569
Eccentricity0.0014692
Argument of Perigee299.9685
Mean Anonmoly148.463
Mean Motion15.09639322
Decay Rate-0.00923645
L11 46791U 20074BE 21021.16668981 -.00923645 00000-0 -61138-1 0 9992
L22 46791 53.0569 92.1317 0014692 299.9685 148.4630 15.09639322 13976

Live tracking and technical data element details for STARLINK-1933 (NORAD 46791). STARLINK-1933 can be tracked NOW for your location showing map with azimuth and elevation plus other details from your city location.

Track the satellite on the map from your city or location and see movement details for azimuth, elevation, latitude, longitude, range, height, and movement on the map or in text.







IsCatalogInMostPopularTable: catalog: 46791, numindb: 34
Update: records affected: 1



GetName: 46791 STARLINK-1933

Hit Count: updated at: Fri, 22 Jan 2021 19:48:28 GMT